Location: Unspecified
(0.0000°N, 0.0000°E)
Time: 03:07:45
(UTC+00:00)

Vanguard 1 Rocket - All Passes

Search period start: 28 May 2018 00:00
Search period end: 07 June 2018 00:00
Orbit: 652 x 4225 km, 34.3° (Epoch: 27 May)

Date Brightness Start Highest point End Pass type
(mag) Time Alt. Az. Time Alt. Az. Time Alt. Az.
28 May - 00:28:32 10° NNW 00:41:21 19° N 00:57:19 10° NE visible
28 May - 02:59:21 10° NNW 03:21:37 36° NNE 03:41:42 10° E visible
28 May - 05:30:42 10° NW 05:57:04 76° NE 06:13:28 10° ESE visible
28 May - 08:07:26 10° WNW 08:27:08 43° SW 08:38:16 10° SSE daylight
28 May - 18:16:11 10° SW 18:21:27 87° SE 18:30:49 10° NE visible
28 May - 20:42:31 10° WNW 20:49:27 26° NNW 21:00:47 10° NNE visible
28 May - 23:14:38 10° NW 23:23:59 17° N 23:36:25 10° NE visible
29 May - 01:45:50 10° NNW 02:04:10 27° NNE 02:23:56 10° ENE visible
29 May - 04:15:54 10° NW 04:41:40 57° NE 05:00:45 10° ESE visible
29 May - 06:49:35 10° WNW 07:14:02 66° SW 07:27:58 10° SE daylight
29 May - 09:32:44 10° WSW 09:42:45 18° SW 09:49:47 10° S daylight
29 May - 17:06:21 10° SSW 17:10:43 36° SE 17:17:04 10° ENE daylight
29 May - 19:30:40 10° W 19:36:36 36° NNW 19:46:55 10° NE visible
29 May - 22:00:50 10° NW 22:08:03 17° N 22:18:07 10° NNE visible
30 May - 00:32:44 10° NNW 00:46:22 20° NNE 01:03:10 10° ENE visible
30 May - 03:02:00 10° NW 03:25:21 43° NNE 03:46:18 10° E visible
30 May - 05:33:19 10° NW 05:59:56 89° NE 06:16:44 10° SE visible
30 May - 08:11:40 10° W 08:29:58 34° SW 08:40:57 10° SSE daylight
30 May - 15:57:58 10° S 16:00:03 13° SE 16:02:18 10° ESE daylight
30 May - 18:19:38 10° WSW 18:24:47 60° NNW 18:33:41 10° NE visible
30 May - 20:47:31 10° NW 20:53:38 19° NNW 21:02:40 10° NNE visible
30 May - 23:19:48 10° NNW 23:29:00 16° N 23:40:56 10° NE visible
31 May - 01:48:53 10° NNW 02:08:24 31° NNE 02:29:22 10° E visible
31 May - 04:18:23 10° NW 04:44:44 68° NE 05:04:23 10° ESE visible
31 May - 06:52:55 10° WNW 07:16:44 55° SW 07:30:51 10° SE daylight
31 May - 09:39:20 10° WSW 09:46:15 14° SW 09:51:38 10° S daylight
31 May - 17:09:19 10° SW 17:13:51 61° SE 17:20:40 10° ENE daylight
31 May - 19:35:02 10° WNW 19:40:28 25° NNW 19:49:01 10° NNE visible
31 May - 22:06:40 10° NNW 22:12:47 14° N 22:20:41 10° NNE visible
01 Jun - 00:36:21 10° NNW 00:51:07 23° NNE 01:09:16 10° ENE visible
01 Jun - 03:04:35 10° NW 03:28:43 51° NE 03:50:29 10° ESE visible
01 Jun - 05:36:08 10° WNW 06:02:39 78° SW 06:19:49 10° SE visible
01 Jun - 08:16:30 10° W 08:32:59 27° SW 08:43:32 10° SSE daylight
01 Jun - 15:59:47 10° SSW 16:03:16 22° SE 16:07:19 10° E daylight
01 Jun - 18:23:27 10° W 18:28:20 38° NNW 18:36:15 10° NE visible
01 Jun - 20:53:13 10° NW 20:58:01 14° N 21:04:18 10° NNE visible
01 Jun - 23:24:18 10° NNW 23:33:59 16° NNE 23:46:28 10° NE visible
02 Jun - 01:51:41 10° NNW 02:12:12 37° NNE 02:34:21 10° E visible
02 Jun - 04:20:59 10° NW 04:47:36 80° NE 05:07:45 10° ESE visible
02 Jun - 06:56:41 10° WNW 07:19:29 45° SW 07:33:38 10° SSE daylight
02 Jun - 09:47:56 10° SW 09:50:05 10° SSW 09:52:03 10° SSW daylight
02 Jun - 17:12:35 10° WSW 17:17:07 78° NW 17:23:51 10° NE daylight
02 Jun - 19:40:01 10° NW 19:44:31 17° NNW 19:50:45 10° NNE visible
02 Jun - 22:12:31 10° NNW 22:17:40 12° N 22:23:54 10° NNE visible
03 Jun - 00:39:31 10° NNW 00:55:27 26° NNE 01:15:12 10° ENE visible
03 Jun - 03:07:09 10° NW 03:31:47 60° NE 03:54:17 10° ESE visible
03 Jun - 05:39:14 10° WNW 06:05:18 66° SW 06:22:45 10° SE daylight
03 Jun - 08:22:01 10° W 08:36:18 22° SW 08:46:02 10° S daylight
03 Jun - 16:02:22 10° SSW 16:06:29 39° SE 16:11:23 10° ENE daylight
03 Jun - 18:27:41 10° WNW 18:32:04 24° NNW 18:38:30 10° NNE visible
03 Jun - 21:00:21 10° NNW 21:02:33 11° N 21:05:00 10° N visible
03 Jun - 23:28:05 10° NNW 23:38:46 18° NNE 23:52:42 10° ENE visible
04 Jun - 01:54:21 10° NNW 02:15:37 44° NE 02:38:52 10° E visible
04 Jun - 04:23:45 10° NW 04:50:18 88° SW 05:10:53 10° SE visible
04 Jun - 07:00:57 10° W 07:22:22 37° SW 07:36:19 10° SSE daylight
04 Jun - 14:53:05 10° S 14:55:38 14° SSE 14:58:07 10° ESE daylight
04 Jun - 17:16:12 10° WSW 17:20:32 44° NNW 17:26:42 10° NE daylight
04 Jun - 19:46:17 10° NNW 19:48:43 11° N 19:51:33 10° N visible
04 Jun - 22:17:37 10° N 22:22:33 12° NNE 22:28:26 10° NNE visible
05 Jun - 00:42:25 10° NNW 00:59:23 31° NNE 01:20:42 10° E visible
05 Jun - 03:09:46 10° NW 03:34:38 71° NE 03:57:46 10° ESE visible
05 Jun - 05:42:40 10° WNW 06:07:58 55° SW 06:25:33 10° SE daylight
05 Jun - 08:28:15 10° WSW 08:39:57 18° SSW 08:48:29 10° S daylight
05 Jun - 16:05:22 10° SW 16:09:44 73° SE 16:14:56 10° ENE daylight
05 Jun - 18:32:37 10° NW 18:35:57 15° NNW 18:40:13 10° NNE visible
05 Jun - 23:31:18 10° NNW 23:43:13 21° NNE 23:59:07 10° ENE visible
06 Jun - 01:56:59 10° NW 02:18:43 52° NE 02:42:56 10° ESE visible
06 Jun - 04:26:43 10° WNW 04:52:55 76° SW 05:13:51 10° SE visible
06 Jun - 07:05:47 10° W 07:25:32 30° SW 07:38:58 10° SSE daylight
06 Jun - 14:55:07 10° SSW 14:59:03 26° SE 15:02:49 10° E daylight
06 Jun - 17:20:13 10° W 17:24:05 26° NNW 17:29:10 10° NNE daylight
06 Jun - 22:21:28 10° N 22:27:20 13° NNE 22:34:29 10° NE visible
